Hourly Weather Abay

Today, 19 January, Tuesday

Time Temperature Precipitation Wind Pressure Humidity
00:00 -9°C° 0 mm 2 mps 665 mmHg 68%
01:00 -9°C° 0 mm 2 mps 665 mmHg 69%
02:00 -9°C° 0 mm 2 mps 665 mmHg 70%
03:00 -9°C° 0 mm 2 mps 665 mmHg 70%
04:00 -10°C° 0 mm 2 mps 665 mmHg 71%
05:00 -10°C° 0 mm 2 mps 665 mmHg 72%
06:00 -12°C° 0 mm 2 mps 664 mmHg 72%
07:00 -12°C° 0 mm 2 mps 665 mmHg 72%
08:00 -12°C° 0 mm 2 mps 665 mmHg 73%
09:00 -12°C° 0 mm 2 mps 665 mmHg 73%
10:00 -9°C° 0 mm 2 mps 666 mmHg 72%
11:00 -7°C° 0 mm 2 mps 666 mmHg 72%
12:00 -5°C° 0 mm 2 mps 667 mmHg 71%
13:00 -5°C° 0 mm 2 mps 667 mmHg 73%
14:00 -5°C° 0 mm 2 mps 667 mmHg 76%
15:00 -4°C° 0 mm 2 mps 667 mmHg 78%
16:00 -6°C° 0 mm 2 mps 666 mmHg 77%
17:00 -8°C° 0 mm 2 mps 666 mmHg 76%
18:00 -10°C° 0 mm 2 mps 666 mmHg 76%
19:00 -9°C° 0 mm 1 mps 666 mmHg 75%
20:00 -9°C° 0 mm 1 mps 666 mmHg 75%
21:00 -9°C° 0 mm 1 mps 666 mmHg 74%
22:00 -9°C° 0 mm 1 mps 666 mmHg 74%
23:00 -9°C° 0 mm 1 mps 666 mmHg 74%

Tomorrow, 20 January, Wednesday

Time Temperature Precipitation Wind Pressure Humidity
00:00 -10°C° 0 mm 1 mps 666 mmHg 74%
01:00 -10°C° 0 mm 1 mps 666 mmHg 74%
02:00 -10°C° 0 mm 1 mps 666 mmHg 75%
03:00 -10°C° 0 mm 1 mps 666 mmHg 76%
04:00 -10°C° 0 mm 1 mps 666 mmHg 79%
05:00 -10°C° 0 mm 1 mps 666 mmHg 82%
06:00 -10°C° 0 mm 1 mps 667 mmHg 85%
07:00 -10°C° 0 mm 1 mps 667 mmHg 87%
08:00 -10°C° 0 mm 1 mps 667 mmHg 89%
09:00 -9°C° 0 mm 1 mps 668 mmHg 91%
10:00 -8°C° 0 mm 1 mps 668 mmHg 91%
11:00 -6°C° 0 mm 1 mps 669 mmHg 91%
12:00 -3°C° 0 mm 1 mps 669 mmHg 91%
13:00 -3°C° 0 mm 1 mps 669 mmHg 91%
14:00 -3°C° 0 mm 1 mps 669 mmHg 91%
15:00 -4°C° 0 mm 2 mps 669 mmHg 91%
16:00 -5°C° 0 mm 2 mps 669 mmHg 92%
17:00 -6°C° 0 mm 2 mps 669 mmHg 92%
18:00 -7°C° 0 mm 2 mps 669 mmHg 93%
19:00 -7°C° 0 mm 2 mps 669 mmHg 93%
20:00 -7°C° 0 mm 2 mps 669 mmHg 93%
21:00 -7°C° 0 mm 2 mps 669 mmHg 93%
22:00 -7°C° 0.1 mm 2 mps 669 mmHg 93%
23:00 -7°C° 0.1 mm 2 mps 669 mmHg 93%

Day after tomorrow, 21 January, Thursday

Time Temperature Precipitation Wind Pressure Humidity
00:00 -7°C° 0.1 mm 2 mps 669 mmHg 93%
01:00 -7°C° 0.1 mm 2 mps 669 mmHg 93%
02:00 -7°C° 0.1 mm 2 mps 669 mmHg 94%
03:00 -8°C° 0.1 mm 2 mps 669 mmHg 94%
04:00 -8°C° 0.1 mm 2 mps 669 mmHg 94%
05:00 -8°C° 0.1 mm 2 mps 669 mmHg 94%
06:00 -9°C° 0.1 mm 2 mps 669 mmHg 94%
07:00 -9°C° 0 mm 2 mps 669 mmHg 94%
08:00 -8°C° 0 mm 2 mps 669 mmHg 94%
09:00 -8°C° 0 mm 2 mps 669 mmHg 93%
10:00 -7°C° 0.1 mm 2 mps 669 mmHg 92%
11:00 -5°C° 0.1 mm 2 mps 669 mmHg 91%
12:00 -4°C° 0.1 mm 2 mps 669 mmHg 90%
13:00 -4°C° 0.1 mm 2 mps 668 mmHg 90%
14:00 -3°C° 0.1 mm 2 mps 668 mmHg 91%
15:00 -3°C° 0.1 mm 2 mps 667 mmHg 92%
16:00 -4°C° 0.1 mm 2 mps 667 mmHg 93%
17:00 -5°C° 0.1 mm 2 mps 666 mmHg 93%
18:00 -4°C° 0.1 mm 1 mps 666 mmHg 94%
19:00 -7°C° 0 mm 2 mps 665 mmHg 94%
20:00 -7°C° 0 mm 2 mps 665 mmHg 94%
21:00 -7°C° 0 mm 2 mps 664 mmHg 93%
22:00 -7°C° 0 mm 2 mps 663 mmHg 92%
23:00 -7°C° 0 mm 1 mps 663 mmHg 92%

22 January, Friday

Time Temperature Precipitation Wind Pressure Humidity
00:00 -7°C° 0 mm 1 mps 662 mmHg 91%
01:00 -7°C° 0 mm 1 mps 661 mmHg 90%
02:00 -7°C° 0 mm 1 mps 661 mmHg 88%
03:00 -7°C° 0 mm 1 mps 660 mmHg 87%
04:00 -7°C° 0 mm 1 mps 660 mmHg 86%
05:00 -7°C° 0 mm 1 mps 659 mmHg 85%
06:00 -7°C° 0 mm 1 mps 659 mmHg 84%
07:00 -7°C° 0 mm 1 mps 659 mmHg 83%
08:00 -6°C° 0 mm 1 mps 659 mmHg 83%
09:00 -6°C° 0 mm 1 mps 659 mmHg 83%
10:00 -4°C° 0 mm 1 mps 659 mmHg 83%
11:00 -2°C° 0 mm 1 mps 659 mmHg 83%
12:00 -1°C° 0 mm 1 mps 659 mmHg 83%
13:00 -1°C° 0 mm 1 mps 659 mmHg 84%
14:00 -1°C° 0 mm 1 mps 660 mmHg 85%
15:00 0°C° 0 mm 1 mps 660 mmHg 86%
16:00 -1°C° 0.1 mm 1 mps 660 mmHg 88%
17:00 -4°C° 0.1 mm 2 mps 660 mmHg 90%
18:00 -5°C° 0.1 mm 2 mps 660 mmHg 93%
19:00 -5°C° 0.4 mm 2 mps 660 mmHg 93%
20:00 -6°C° 0.4 mm 2 mps 660 mmHg 94%
21:00 -6°C° 0.4 mm 2 mps 661 mmHg 95%
22:00 -6°C° 0.4 mm 2 mps 661 mmHg 95%
23:00 -6°C° 0.4 mm 2 mps 662 mmHg 95%

23 January, Saturday

Time Temperature Precipitation Wind Pressure Humidity
00:00 -6°C° 0.4 mm 2 mps 662 mmHg 95%
01:00 -7°C° 0.3 mm 2 mps 663 mmHg 94%
02:00 -9°C° 0.3 mm 3 mps 664 mmHg 93%
03:00 -9°C° 0.3 mm 3 mps 665 mmHg 92%
04:00 -12°C° 0.2 mm 3 mps 665 mmHg 92%
05:00 -13°C° 0.2 mm 3 mps 665 mmHg 92%
06:00 -14°C° 0.2 mm 3 mps 666 mmHg 93%
07:00 -16°C° 0 mm 4 mps 666 mmHg 92%
08:00 -18°C° 0 mm 4 mps 667 mmHg 92%
09:00 -19°C° 0 mm 4 mps 667 mmHg 91%
10:00 -19°C° 0.1 mm 5 mps 667 mmHg 90%
11:00 -20°C° 0.1 mm 6 mps 667 mmHg 89%
12:00 -18°C° 0.1 mm 6 mps 667 mmHg 87%
13:00 -20°C° 0.2 mm 7 mps 667 mmHg 88%
14:00 -21°C° 0.2 mm 7 mps 667 mmHg 89%
15:00 -21°C° 0.2 mm 7 mps 667 mmHg 89%
16:00 -21°C° 0.3 mm 7 mps 667 mmHg 91%
17:00 -23°C° 0.3 mm 7 mps 668 mmHg 92%
18:00 -23°C° 0.3 mm 7 mps 669 mmHg 94%
19:00 -23°C° 0.2 mm 6 mps 669 mmHg 93%
20:00 -24°C° 0.2 mm 6 mps 670 mmHg 92%
21:00 -24°C° 0.2 mm 5 mps 670 mmHg 91%
22:00 -24°C° 0.1 mm 5 mps 671 mmHg 92%
23:00 -24°C° 0.1 mm 4 mps 671 mmHg 92%

24 January, Sunday

Time Temperature Precipitation Wind Pressure Humidity
00:00 -24°C° 0.1 mm 4 mps 672 mmHg 93%
01:00 -24°C° 0.1 mm 4 mps 672 mmHg 93%
02:00 -24°C° 0.1 mm 4 mps 672 mmHg 93%
03:00 -23°C° 0.1 mm 3 mps 672 mmHg 94%
04:00 -24°C° 0 mm 3 mps 672 mmHg 94%
05:00 -24°C° 0 mm 3 mps 673 mmHg 94%
06:00 -25°C° 0 mm 3 mps 673 mmHg 95%
07:00 -24°C° 0 mm 3 mps 673 mmHg 94%
08:00 -24°C° 0 mm 3 mps 673 mmHg 94%
09:00 -23°C° 0 mm 3 mps 674 mmHg 93%
10:00 -23°C° 0.1 mm 4 mps 674 mmHg 91%
11:00 -22°C° 0.1 mm 4 mps 674 mmHg 88%
12:00 -21°C° 0.1 mm 5 mps 673 mmHg 86%
13:00 -21°C° 0.1 mm 5 mps 673 mmHg 86%
14:00 -20°C° 0.1 mm 5 mps 673 mmHg 87%
15:00 -19°C° 0.1 mm 4 mps 673 mmHg 88%
16:00 -20°C° 0.1 mm 4 mps 672 mmHg 90%
17:00 -20°C° 0.1 mm 4 mps 672 mmHg 93%
18:00 -19°C° 0.1 mm 3 mps 672 mmHg 95%
19:00 -19°C° 0.1 mm 3 mps 672 mmHg 95%
20:00 -19°C° 0.1 mm 3 mps 672 mmHg 95%
21:00 -19°C° 0.1 mm 3 mps 672 mmHg 95%
22:00 -19°C° 0.1 mm 3 mps 672 mmHg 95%
23:00 -19°C° 0.1 mm 3 mps 672 mmHg 96%
Show more

We Need Your Consent

Meteoprog and our Service Providers may store and access personal data such as cookies, device identifiers or other similar technologies on your device and process such data to personalise content and ads, as well as provide social media features and to analyse the traffic.

  • Store and/or access information on your device

    Cookies, device identifiers or other information can be stored or accessed on your device for the purposes indicated above.

  • Personalised ads and content, ad and content measurement, audience insights, and products development

    Ads and content can be personalised based on a profile. More data can be added to better personalise ads and content. Ad and content performance can be measured. Insights about the audience who saw the ads and content can be derived. Such data can be used to develop or improve user’s experience, systems and software.

By clicking ‘I Agree’ you will allow the use of indicated cookies, device identifiers, web beacons or other similar technologies. Your settings can be changed in the browser on your device.

For certain purposes, legitimate interests may be relied on, rather than consent. You can read more about this in our Privacy and Cookie Policy.